YV3136 SVMT-SVBC

Flight info

Callsign YV3136
Flight time 0h 36m
Altitude 5500
Route DCT
Aircraft PA31/L-SD/S

Departure

Time 2026-04-25 21:50
Airport José Tadeo Monagas International Airport (SVMT)

Arrival

Time 2026-04-25 22:26
Airport General José Antonio Anzoategui International Airport (SVBC)
Time Latitude Longitude Altitude Speed Heading
2026-04-25 21:47 9.74851 -63.15638 225 ft 0 kts 50°
2026-04-25 21:49 9.74792 -63.15555 225 ft 21 kts 141°
2026-04-25 21:50 9.74837 -63.15411 225 ft 52 kts 51°
2026-04-25 21:50 9.75218 -63.14975 351 ft 98 kts 47°
2026-04-25 21:50 9.75753 -63.14382 627 ft 123 kts 49°
2026-04-25 21:50 9.75980 -63.13601 1126 ft 125 kts 103°
2026-04-25 21:51 9.75264 -63.13100 1485 ft 151 kts 174°
2026-04-25 21:51 9.74342 -63.13643 1864 ft 165 kts 235°
2026-04-25 21:51 9.74036 -63.14750 2226 ft 168 kts 276°
2026-04-25 21:51 9.74462 -63.15821 2607 ft 165 kts 308°
2026-04-25 21:52 9.74999 -63.16858 3011 ft 169 kts 296°
2026-04-25 21:52 9.75407 -63.17949 3338 ft 167 kts 290°
2026-04-25 21:52 9.75742 -63.19075 3647 ft 165 kts 287°
2026-04-25 21:52 9.75937 -63.19807 3810 ft 168 kts 286°
2026-04-25 21:53 9.76228 -63.20975 4076 ft 170 kts 285°
2026-04-25 21:53 9.76505 -63.22131 4328 ft 172 kts 284°
2026-04-25 21:53 9.76792 -63.23337 4570 ft 175 kts 284°
2026-04-25 21:53 9.77076 -63.24537 4802 ft 176 kts 283°
2026-04-25 21:54 9.77361 -63.25737 5042 ft 177 kts 283°
2026-04-25 21:54 9.77651 -63.26955 5280 ft 177 kts 283°
2026-04-25 21:54 9.77939 -63.28167 5528 ft 177 kts 283°
2026-04-25 21:55 9.78253 -63.29495 5795 ft 177 kts 283°
2026-04-25 21:55 9.78543 -63.30715 6042 ft 178 kts 283°
2026-04-25 21:55 9.78829 -63.31923 6284 ft 178 kts 283°
2026-04-25 21:56 9.79120 -63.33149 6522 ft 178 kts 283°
2026-04-25 21:56 9.79315 -63.33975 6618 ft 183 kts 282°
2026-04-25 21:56 9.79722 -63.35714 6661 ft 195 kts 282°
2026-04-25 21:56 9.80042 -63.37069 6667 ft 201 kts 283°
2026-04-25 21:57 9.80375 -63.38470 6678 ft 205 kts 283°
2026-04-25 21:57 9.80708 -63.39877 6672 ft 208 kts 283°
2026-04-25 21:57 9.81042 -63.41272 6683 ft 202 kts 283°
2026-04-25 21:57 9.81370 -63.42644 6693 ft 199 kts 283°
2026-04-25 21:58 9.81693 -63.44008 6688 ft 198 kts 283°
2026-04-25 21:58 9.82012 -63.45355 6691 ft 197 kts 283°
2026-04-25 21:58 9.82333 -63.46707 6681 ft 197 kts 283°
2026-04-25 21:58 9.82652 -63.48055 6687 ft 196 kts 283°
2026-04-25 21:59 9.82969 -63.49395 6688 ft 195 kts 283°
2026-04-25 21:59 9.83285 -63.50729 6699 ft 194 kts 282°
2026-04-25 21:59 9.83601 -63.52058 6703 ft 194 kts 282°
2026-04-25 22:00 9.84229 -63.54728 6698 ft 194 kts 283°
2026-04-25 22:00 9.84540 -63.56046 6702 ft 193 kts 283°
2026-04-25 22:00 9.84856 -63.57386 6705 ft 192 kts 283°
2026-04-25 22:00 9.85165 -63.58692 6725 ft 192 kts 283°
2026-04-25 22:01 9.85480 -63.60014 6721 ft 193 kts 283°
2026-04-25 22:01 9.85794 -63.61340 6715 ft 194 kts 283°
2026-04-25 22:01 9.86107 -63.62668 6717 ft 194 kts 283°
2026-04-25 22:01 9.86316 -63.63554 6717 ft 194 kts 283°
2026-04-25 22:02 9.86737 -63.65337 6716 ft 194 kts 283°
2026-04-25 22:02 9.87046 -63.66648 6718 ft 193 kts 283°
2026-04-25 22:02 9.87359 -63.67976 6724 ft 193 kts 283°
2026-04-25 22:02 9.87673 -63.69309 6725 ft 192 kts 283°
2026-04-25 22:03 9.87982 -63.70616 6731 ft 192 kts 283°
2026-04-25 22:03 9.88292 -63.71928 6737 ft 191 kts 283°
2026-04-25 22:03 9.88602 -63.73246 6746 ft 190 kts 283°
2026-04-25 22:03 9.88909 -63.74544 6753 ft 192 kts 283°
2026-04-25 22:04 9.89218 -63.75863 6745 ft 194 kts 283°
2026-04-25 22:04 9.89533 -63.77204 6732 ft 195 kts 283°
2026-04-25 22:04 9.89852 -63.78564 6741 ft 194 kts 283°
2026-04-25 22:04 9.90036 -63.79345 6752 ft 193 kts 283°
2026-04-25 22:05 9.90352 -63.80682 6761 ft 192 kts 283°
2026-04-25 22:05 9.90660 -63.81986 6772 ft 192 kts 283°
2026-04-25 22:05 9.90970 -63.83301 6787 ft 192 kts 283°
2026-04-25 22:05 9.91285 -63.84629 6799 ft 191 kts 283°
2026-04-25 22:06 9.91594 -63.85934 6804 ft 192 kts 283°
2026-04-25 22:06 9.91909 -63.87256 6804 ft 191 kts 283°
2026-04-25 22:06 9.92216 -63.88560 6806 ft 190 kts 283°
2026-04-25 22:06 9.92524 -63.89864 6801 ft 191 kts 283°
2026-04-25 22:07 9.92832 -63.91184 6801 ft 190 kts 283°
2026-04-25 22:07 9.93030 -63.92036 6810 ft 190 kts 283°
2026-04-25 22:07 9.93436 -63.93776 6825 ft 188 kts 283°
2026-04-25 22:07 9.93740 -63.95074 6835 ft 188 kts 284°
2026-04-25 22:08 9.94040 -63.96349 6842 ft 188 kts 284°
2026-04-25 22:08 9.94345 -63.97638 6847 ft 188 kts 284°
2026-04-25 22:08 9.94651 -63.98930 6856 ft 188 kts 284°
2026-04-25 22:08 9.94957 -64.00229 6858 ft 188 kts 283°
2026-04-25 22:09 9.95258 -64.01509 6856 ft 188 kts 284°
2026-04-25 22:09 9.95564 -64.02803 6855 ft 187 kts 283°
2026-04-25 22:09 9.95865 -64.04089 6859 ft 187 kts 283°
2026-04-25 22:09 9.96167 -64.05372 6860 ft 187 kts 283°
2026-04-25 22:10 9.96470 -64.06656 6853 ft 188 kts 283°
2026-04-25 22:10 9.96776 -64.07951 6845 ft 188 kts 283°
2026-04-25 22:10 9.97075 -64.09226 6842 ft 187 kts 283°
2026-04-25 22:10 9.97379 -64.10517 6838 ft 187 kts 283°
2026-04-25 22:11 9.97678 -64.11799 6832 ft 187 kts 283°
2026-04-25 22:11 9.97977 -64.13085 6830 ft 187 kts 283°
2026-04-25 22:11 9.98278 -64.14374 6824 ft 187 kts 283°
2026-04-25 22:11 9.98577 -64.15653 6820 ft 187 kts 283°
2026-04-25 22:12 9.98879 -64.16939 6815 ft 187 kts 283°
2026-04-25 22:12 9.99181 -64.18221 6806 ft 185 kts 283°
2026-04-25 22:12 9.99478 -64.19469 6798 ft 175 kts 283°
2026-04-25 22:12 9.99662 -64.20251 6793 ft 170 kts 283°
2026-04-25 22:13 10.00028 -64.21794 6685 ft 171 kts 283°
2026-04-25 22:13 10.00309 -64.23001 6423 ft 180 kts 283°
2026-04-25 22:13 10.00600 -64.24248 6239 ft 181 kts 283°
2026-04-25 22:13 10.00889 -64.25479 6060 ft 180 kts 283°
2026-04-25 22:14 10.01181 -64.26730 5879 ft 180 kts 283°
2026-04-25 22:14 10.01468 -64.27955 5702 ft 180 kts 283°
2026-04-25 22:14 10.01758 -64.29196 5523 ft 180 kts 283°
2026-04-25 22:14 10.02045 -64.30426 5331 ft 180 kts 283°
2026-04-25 22:15 10.02338 -64.31673 5140 ft 179 kts 283°
2026-04-25 22:15 10.02622 -64.32892 4959 ft 179 kts 283°
2026-04-25 22:15 10.02914 -64.34128 4786 ft 178 kts 283°
2026-04-25 22:16 10.03483 -64.36560 4437 ft 176 kts 283°
2026-04-25 22:16 10.03753 -64.37721 4264 ft 175 kts 283°
2026-04-25 22:16 10.04034 -64.38921 4079 ft 173 kts 284°
2026-04-25 22:16 10.04307 -64.40105 3904 ft 172 kts 284°
2026-04-25 22:17 10.04584 -64.41275 3731 ft 172 kts 283°
2026-04-25 22:17 10.04864 -64.42460 3555 ft 171 kts 283°
2026-04-25 22:17 10.05135 -64.43623 3376 ft 170 kts 284°
2026-04-25 22:17 10.05408 -64.44792 3232 ft 168 kts 283°
2026-04-25 22:18 10.05675 -64.45927 3126 ft 163 kts 283°
2026-04-25 22:18 10.05936 -64.47023 3061 ft 155 kts 284°
2026-04-25 22:18 10.06164 -64.48045 2970 ft 144 kts 283°
2026-04-25 22:18 10.06386 -64.49004 2876 ft 137 kts 283°
2026-04-25 22:19 10.06599 -64.49927 2769 ft 133 kts 284°
2026-04-25 22:19 10.06807 -64.50826 2663 ft 130 kts 284°
2026-04-25 22:19 10.07015 -64.51717 2571 ft 127 kts 284°
2026-04-25 22:19 10.07214 -64.52586 2441 ft 124 kts 284°
2026-04-25 22:20 10.07378 -64.53377 2310 ft 118 kts 283°
2026-04-25 22:20 10.07476 -64.53799 2213 ft 106 kts 292°
2026-04-25 22:20 10.07704 -64.54606 2073 ft 131 kts 287°
2026-04-25 22:20 10.07928 -64.55576 2017 ft 148 kts 285°
2026-04-25 22:21 10.08156 -64.56629 1990 ft 157 kts 285°
2026-04-25 22:21 10.08390 -64.57734 1973 ft 162 kts 284°
2026-04-25 22:21 10.08817 -64.58785 1948 ft 162 kts 304°
2026-04-25 22:21 10.09415 -64.59760 1936 ft 164 kts 303°
2026-04-25 22:22 10.10031 -64.60749 1926 ft 165 kts 304°
2026-04-25 22:22 10.10644 -64.61735 1904 ft 162 kts 304°
2026-04-25 22:22 10.11234 -64.62681 1769 ft 156 kts 304°
2026-04-25 22:22 10.11798 -64.63605 1622 ft 152 kts 304°
2026-04-25 22:23 10.12351 -64.64512 1479 ft 150 kts 304°
2026-04-25 22:23 10.12905 -64.65412 1334 ft 148 kts 304°
2026-04-25 22:23 10.13450 -64.66291 1210 ft 145 kts 304°
2026-04-25 22:23 10.13989 -64.67140 1091 ft 143 kts 304°
2026-04-25 22:24 10.14461 -64.67885 1038 ft 110 kts 305°
2026-04-25 22:24 10.14847 -64.68503 957 ft 99 kts 304°
2026-04-25 22:24 10.15037 -64.69133 896 ft 98 kts 257°
2026-04-25 22:24 10.14665 -64.69755 785 ft 105 kts 226°
2026-04-25 22:25 10.14142 -64.70248 659 ft 100 kts 222°
2026-04-25 22:25 10.13550 -64.70616 507 ft 98 kts 193°
2026-04-25 22:25 10.12892 -64.70546 331 ft 93 kts 149°
2026-04-25 22:25 10.12354 -64.70178 143 ft 93 kts 142°
2026-04-25 22:26 10.11856 -64.69796 43 ft 83 kts 142°
2026-04-25 22:26 10.11434 -64.69472 38 ft 69 kts 142°
2026-04-25 22:26 10.11088 -64.69198 38 ft 56 kts 141°
2026-04-25 22:26 10.10848 -64.69015 38 ft 25 kts 144°
2026-04-25 22:27 10.10742 -64.68898 38 ft 20 kts 101°
2026-04-25 22:27 10.10753 -64.68800 39 ft 14 kts 81°
2026-04-25 22:27 10.10768 -64.68693 38 ft 15 kts 90°
2026-04-25 22:27 10.10781 -64.68669 39 ft 0 kts 349°